Location: Oak Glen
(34.0495°N, 116.9470°E)
Time: 21:11:23
(UTC-07:00)

Vanguard 2 Rocket - Visible Passes

Search period start: 24 June 2018 00:00
Search period end: 04 July 2018 00:00
Orbit: 553 x 3328 km, 32.9° (Epoch: 24 June)

Date Brightness Start Highest point End Pass type
(mag) Time Alt. Az. Time Alt. Az. Time Alt. Az.
28 Jun 10.4 13:27:19 10° SSE 13:34:31 15° SE 13:43:06 10° E visible
30 Jun 10.1 13:37:55 10° S 13:47:33 24° SE 14:00:26 10° E visible
01 Jul 10.2 12:42:22 10° SSE 12:47:47 14° SE 12:54:13 10° E visible
03 Jul 9.8 12:52:48 10° S 13:00:48 22° SE 13:11:49 10° E visible
